Weather History for KPHP - August, 2013

Change the Weather History Date:

Friday, August 2, 2013

  Actual Average Record
Temperature  
Mean Temperature 66 °F 76 °F  
Max Temperature 75 °F 91 °F 104 °F (1960)
Min Temperature 57 °F 61 °F 46 °F (1986)
Degree Days  
Heating Degree Days 0 0  
Month to date heating degree days 0 0  
Since 1 June heating degree days 67 71  
Since 1 July heating degree days 3 8  
Cooling Degree Days 1 11  
Month to date cooling degree days 7 22  
Year to date cooling degree days 488 477  
Since 1 June cooling degree days 467 450  
Growing Degree Days 16 (Base 50)    
Moisture  
Dew Point 56 °F    
Average Humidity 72    
Maximum Humidity 90    
Minimum Humidity 53    
Precipitation  
Precipitation 0.14 in 0.05 in 1.00 in (1972)
Month to date precipitation 0.16 0.11  
Year to date precipitation 9.31 11.99  
Sea Level Pressure  
Sea Level Pressure 29.97 in    
Wind  
Wind Speed 13 mph (East)    
Max Wind Speed 28 mph    
Max Gust Speed 33 mph    
Visibility 10 miles    
Events Rain    
T = Trace of Precipitation, MM = Missing Value Source: NWS Daily Summary

Daily Weather History Graph

Daily Weather History Graph

Search for Another Location

Airport or City:

Trip Planner

Search our weather history database for the weather conditions in past years. The results will help you decide how hot, cold, wet, or windy it might be!

Date:

Astronomy

Aug. 02, 2013 Rise Set
Actual Time 5:35 AM MDT 8:08 PM MDT
Civil Twilight 5:02 AM MDT 8:41 PM MDT
Nautical Twilight 4:21 AM MDT 9:22 PM MDT
Astronomical Twilight 3:35 AM MDT 10:08 PM MDT
Moon 1:56 AM MDT 5:09 PM MDT
Length of Visible Light 15h 38m
Length of Day
14h 32m
Waning Crescent, 15% of the Moon is Illuminated
Aug 2
Waning Crescent
Aug 6
New
Aug 14
First Quarter
Aug 20
Full
Aug 28
Last Quarter

Hourly Weather History & Observations

Time (MDT) Temp. Dew Point Humidity Pressure Visibility Wind Dir Wind Speed Gust Speed Precip Events Conditions
12:55 AM 69.1 °F 51.1 °F 53% 29.87 in 10.0 mi SE 12.7 mph - N/A   Overcast
1:55 AM 64.9 °F 53.1 °F 65% 29.87 in 10.0 mi SE 13.8 mph 20.7 mph 0.00 in Rain Light Rain
2:24 AM 64.4 °F 53.6 °F 68% 29.92 in 10.0 mi East 11.5 mph - 0.00 in   Overcast
2:55 AM 66.0 °F 53.1 °F 63% 29.85 in 10.0 mi East 11.5 mph 24.2 mph 0.00 in   Mostly Cloudy
3:55 AM 66.0 °F 53.1 °F 63% 29.88 in 10.0 mi ENE 9.2 mph - N/A   Overcast
4:55 AM 64.0 °F 53.1 °F 67% 29.88 in 10.0 mi ENE 17.3 mph 24.2 mph N/A   Partly Cloudy
5:55 AM 63.0 °F 53.1 °F 70% 29.92 in 10.0 mi NE 10.4 mph - 0.00 in   Overcast
6:55 AM 61.0 °F 53.1 °F 75% 29.92 in 10.0 mi ENE 23.0 mph 33.4 mph N/A   Overcast
7:55 AM 62.1 °F 53.1 °F 72% 29.92 in 10.0 mi East 19.6 mph - N/A   Overcast
8:55 AM 64.0 °F 54.0 °F 70% 29.92 in 10.0 mi East 13.8 mph - N/A   Overcast
9:43 AM 62.6 °F 55.4 °F 77% 30.05 in 10.0 mi North 16.1 mph - 0.00 in Rain Light Rain
9:55 AM 61.0 °F 55.9 °F 83% 30.03 in 5.0 mi North 20.7 mph 26.5 mph 0.02 in Rain Heavy Rain
10:55 AM 62.1 °F 57.9 °F 86% 30.01 in 6.0 mi ENE 11.5 mph - 0.12 in Rain Light Rain
11:55 AM 64.0 °F 57.0 °F 78% 30.00 in 10.0 mi East 12.7 mph 20.7 mph 0.00 in   Overcast
12:07 PM 62.6 °F 57.2 °F 82% 30.02 in 10.0 mi ESE 13.8 mph 18.4 mph N/A   Overcast
12:14 PM 64.4 °F 57.2 °F 77% 29.99 in 10.0 mi SE 18.4 mph 23.0 mph N/A   Mostly Cloudy
12:55 PM 68.0 °F 57.9 °F 70% 29.94 in 10.0 mi SE 15.0 mph 24.2 mph N/A   Clear
1:48 PM 73.4 °F 60.8 °F 65% 29.99 in 10.0 mi SSE 12.7 mph - N/A   Mostly Cloudy
1:55 PM 71.1 °F 59.0 °F 66% 29.95 in 10.0 mi SSE 9.2 mph - N/A   Mostly Cloudy
2:50 PM 73.4 °F 59.0 °F 61% 30.00 in 10.0 mi East 8.1 mph - N/A   Mostly Cloudy
2:55 PM 73.9 °F 57.9 °F 57% 29.95 in 10.0 mi East 10.4 mph - N/A   Mostly Cloudy
3:55 PM 73.0 °F 57.9 °F 59% 29.97 in 10.0 mi ENE 13.8 mph - N/A   Overcast
4:55 PM 72.0 °F 57.9 °F 61% 29.98 in 10.0 mi ENE 19.6 mph 25.3 mph N/A   Overcast
5:55 PM 72.0 °F 57.9 °F 61% 29.98 in 10.0 mi ENE 16.1 mph - N/A   Scattered Clouds
6:55 PM 69.1 °F 57.9 °F 68% 29.99 in 10.0 mi East 15.0 mph - N/A   Clear
7:55 PM 66.9 °F 57.9 °F 73% 29.99 in 10.0 mi East 13.8 mph - N/A   Clear
8:55 PM 64.0 °F 57.9 °F 80% 30.03 in 10.0 mi East 8.1 mph - N/A   Clear
9:55 PM 62.1 °F 57.9 °F 86% 30.06 in 10.0 mi East 6.9 mph - N/A   Clear
10:55 PM 60.1 °F 57.9 °F 93% 30.06 in 10.0 mi ESE 5.8 mph - N/A   Clear
11:55 PM 59.0 °F 55.9 °F 90% 30.08 in 10.0 mi East 4.6 mph - N/A   Clear